Weather History for KNJK - November, 2012

Change the Weather History Date:

Tuesday, November 6, 2012

  Actual Average (KCZZ) Record (KCZZ)
Temperature  
Mean Temperature 76 °F 56 °F  
Max Temperature 93 °F 73 °F 87 °F (1980)
Min Temperature 60 °F 38 °F 26 °F (1957)
Degree Days  
Heating Degree Days 0 9  
Month to date heating degree days 53  
Since 1 July heating degree days 263  
Cooling Degree Days 12 0  
Month to date cooling degree days 0  
Year to date cooling degree days 839  
Growing Degree Days 26 (Base 50)    
Moisture  
Dew Point 33 °F    
Average Humidity 23    
Maximum Humidity 37    
Minimum Humidity 12    
Precipitation  
Precipitation 0.00 in 0.03 in 0.76 in (1960)
Month to date precipitation 0.17  
Year to date precipitation 12.50  
Since 1 July precipitation 2.35  
Snow  
Snow 0.00 in - - ()
Month to date snowfall  
Year to date snowfall  
Since 1 July snowfall  
Snow Depth -    
Sea Level Pressure  
Sea Level Pressure 30.01 in    
Wind  
Wind Speed 5 mph (West)    
Max Wind Speed 9 mph    
Max Gust Speed -    
Visibility 10 miles    
Events      
T = Trace of Precipitation, MM = Missing Value Source: NWS Daily Summary

Daily Weather History Graph

Daily Weather History Graph

Search for Another Location

Airport or City:

Trip Planner

Search our weather history database for the weather conditions in past years. The results will help you decide how hot, cold, wet, or windy it might be!

Date:

Astronomy

Nov. 06, 2012 Rise Set
Actual Time 6:05 AM PST 4:46 PM PST
Civil Twilight 5:39 AM PST 5:12 PM PST
Nautical Twilight 5:10 AM PST 5:42 PM PST
Astronomical Twilight 4:41 AM PST 6:11 PM PST
Moon 11:26 PM PST (11/6) 12:02 PM PST (11/6)
Length of Visible Light 11h 33m
Length of Day
10h 41m
Waning Gibbous, 52% of the Moon is Illuminated
Nov 6
Waning Gibbous
Nov 6
Last Quarter
Nov 13
New
Nov 20
First Quarter
Nov 28
Full

Hourly Weather History & Observations

Time (PST) Temp. Dew Point Humidity Pressure Visibility Wind Dir Wind Speed Gust Speed Precip Events Conditions
12:56 AM 63.0 °F 30.0 °F 29% 30.02 in 10.0 mi WSW 9.2 mph - N/A   Clear
1:56 AM 64.0 °F 28.9 °F 27% 30.02 in 10.0 mi West 4.6 mph - N/A   Clear
2:56 AM 64.0 °F 26.1 °F 24% 30.01 in 10.0 mi West 6.9 mph - N/A   Clear
3:56 AM 62.1 °F 30.0 °F 30% 30.02 in 10.0 mi West 3.5 mph - N/A   Clear
4:56 AM 64.0 °F 28.0 °F 26% 30.04 in 10.0 mi West 5.8 mph - N/A   Clear
5:56 AM 60.1 °F 27.0 °F 28% 30.04 in 10.0 mi WSW 5.8 mph - N/A   Clear
6:56 AM 64.0 °F 30.0 °F 28% 30.07 in 10.0 mi SW 3.5 mph - N/A   Clear
7:56 AM 69.1 °F 28.9 °F 22% 30.09 in 10.0 mi Calm Calm - N/A   Clear
8:56 AM 77.0 °F 34.0 °F 21% 30.09 in 10.0 mi Calm Calm - N/A   Clear
9:56 AM 84.0 °F 32.0 °F 15% 30.08 in 10.0 mi NW 4.6 mph - N/A   Clear
10:56 AM 89.1 °F 32.0 °F 13% 30.06 in 10.0 mi Calm Calm - N/A   Clear
11:56 AM 91.9 °F 33.1 °F 12% 30.02 in 10.0 mi NE 5.8 mph - N/A   Clear
12:56 PM 93.0 °F 32.0 °F 12% 29.99 in 10.0 mi NNE 6.9 mph - N/A   Clear
1:56 PM 93.0 °F 32.0 °F 12% 29.98 in 10.0 mi NNE 3.5 mph - N/A   Clear
2:56 PM 93.0 °F 34.0 °F 12% 29.97 in 10.0 mi NNE 5.8 mph - N/A   Clear
3:56 PM 91.0 °F 36.0 °F 14% 29.96 in 10.0 mi Calm Calm - N/A   Clear
4:56 PM 86.0 °F 37.9 °F 18% 29.96 in 10.0 mi Calm Calm - N/A   Clear
5:56 PM 78.1 °F 39.0 °F 25% 29.97 in 10.0 mi SSW 4.6 mph - N/A   Clear
6:56 PM 72.0 °F 37.9 °F 29% 29.98 in 10.0 mi Calm Calm - N/A   Clear
7:56 PM 68.0 °F 41.0 °F 37% 29.99 in 10.0 mi West 3.5 mph - N/A   Clear
8:56 PM 71.1 °F 35.1 °F 27% 29.99 in 10.0 mi SW 9.2 mph - N/A   Clear
9:56 PM 70.0 °F 34.0 °F 27% 29.99 in 10.0 mi WSW 8.1 mph - N/A   Clear
10:56 PM 68.0 °F 34.0 °F 28% 30.00 in 10.0 mi WSW 8.1 mph - N/A   Clear
11:56 PM 64.0 °F 34.0 °F 33% 30.00 in 10.0 mi WSW 8.1 mph - N/A   Clear